weather.gov     
National Weather Service

Regional Weather Roundup
NWS Homepage
This page is being discontinued on March 12, 2014.
The same data is available at this site. Please update your bookmarks.
Thank you, and we apologize for the inconvenience.
Please send an email to SR-SRH.Webmaster@noaa.gov with any concerns.


Current Version
Previous Version:    01  02  03  04  05  06  07  08  09  10  11  12  13  14  15  16  17  18  19  20  21  22  23  24  25  26  27  28  29  30  
   31  32  33  34  35  36  37  38  39  40  41  42  43  44  45  46  47  48  49  50  51  52  53  
[Printable]
034
ASUS43 KIND 280809
RWRIN

WEATHER ROUNDUP FOR INDIANA
NATIONAL WEATHER SERVICE INDIANAPOLIS IN
400 AM EDT MON JUL 28 2014

NOTE: "FAIR" INDICATES FEW OR NO CLOUDS BELOW 12,000 FEET WITH NO
SIGNIFICANT WEATHER AND/OR OBSTRUCTIONS TO VISIBILITY.

* - STATION DOES NOT REPORT WEATHER SUCH AS PRECIPITATION OR FOG.

+ - STATION NOT QUALITY CONTROLLED BY THE NATIONAL WEATHER SERVICE.
    USE DATA WITH CAUTION...ESPECIALLY DEWPOINT AND RELATIVE
    HUMIDITY OBSERVATIONS.

INZ001>003-010>013-019-020-280900-
NORTHWEST INDIANA

CITY           SKY/WX    TMP DP  RH WIND       PRES   REMARKS
GARY /AIRPORT/ CLOUDY    65  53  65 N18G28    29.92S
KNOX *+        CLOUDY    62  55  78 N14G24    29.87R
LA PORTE +     CLOUDY    61  56  83 N18       29.89R
MICHIGAN CITY+ CLOUDY    61  54  77 N10G20    29.89R
MONTICELLO +   CLOUDY    63  57  82 NW9       29.88R
RENSSELAER +   MOCLDY    63  57  82 NW7       29.91R
VALPARAISO     MOCLDY    62  54  74 N15G21    29.90R

$$

LMZ046-743>745-280900-
SOUTHERN LAKE MICHIGAN

STATION/POSITION TIME  TEMP WIND        PRES
                       AIR  DIR/SP/G
                 (UTC) (F)  (DEG/KT/KT) (MB)
MICHIGAN CITY    0800   63  340/ 29/ 35   N/A

$$

INZ004-005-014>016-021>024-280900-
NORTH CENTRAL INDIANA

CITY           SKY/WX    TMP DP  RH WIND       PRES   REMARKS
GOSHEN         CLOUDY    64  59  83 N13       29.83R
LOGANSPORT +   CLOUDY    63  55  77 NW10G17   29.87R
PERU/GRISSOM   CLOUDY    64  62  94 NW16      29.85R
ROCHESTER +    CLOUDY    64  59  82 NW10      29.85R
SOUTH BEND     CLOUDY    63  57  81 N15       29.86R
WARSAW +       CLOUDY    61  59  94 N9        29.83S

$$

INZ006>009-017-018-025>027-280900-
NORTHEAST INDIANA

CITY           SKY/WX    TMP DP  RH WIND       PRES   REMARKS
ANGOLA *+      CLOUDY    63  54  72 N9        29.80R
AUBURN +       CLOUDY    63  57  82 NW7       29.81R
FORT WAYNE     CLOUDY    63  58  83 NW10      29.81R
HUNTINGTON +   CLOUDY    63  58  84 NW6       29.82R

$$

INZ028-029-035-036-043>045-051>053-280900-
WEST CENTRAL INDIANA

CITY           SKY/WX    TMP DP  RH WIND       PRES   REMARKS
GREENCASTLE +  CLEAR     63  59  88 NW5       29.89S
LAFAYETTE      CLOUDY    63  57  81 NW12      29.89R
TERRE HAUTE    CLEAR     65  58  78 NW9       29.90R

$$

INZ030>032-037>040-046>048-054>057-064-065-280900-
CENTRAL INDIANA

CITY           SKY/WX    TMP DP  RH WIND       PRES   REMARKS
CP ATTERBURY + CLEAR     63  57  82 NW6       29.87S
INDIANAPOLIS   PTCLDY    64  58  80 NW12      29.86R
-EAGLE CREEK   PTCLDY    64  58  80 NW12      29.87R
KOKOMO *+      CLOUDY    64  57  77 NW15      29.85R
MARION +       CLOUDY    62  58  87 W8        29.84R
MT COMFORT *+  MOCLDY    64  64 100 NW12G18   29.86S
SHELBYVILLE    CLEAR     65  58  78 NW8       29.85R
ZIONSVILLE +   PTCLDY    63  58  83 W9        29.88R

$$

INZ033-034-041-042-049-050-058-059-280900-
EAST CENTRAL INDIANA

CITY           SKY/WX    TMP DP  RH WIND       PRES   REMARKS
MUNCIE         CLOUDY    63  57  81 NW13      29.83R

$$

INZ060-061-067>069-081>083-085>088-280900-
SOUTHWEST INDIANA

CITY           SKY/WX    TMP DP  RH WIND       PRES   REMARKS
EVANSVILLE     CLEAR     68  58  70 W7        29.93S
WASHINGTON +   CLEAR     65  60  86 NW8       29.90S

$$

INZ062-063-066-070>080-084-089>092-280900-
SOUTH CENTRAL AND SOUTHEAST INDIANA

CITY           SKY/WX    TMP DP  RH WIND       PRES   REMARKS
BEDFORD +      CLEAR     64  55  72 W5        29.89S
BLOOMINGTON    CLEAR     63  58  83 W7        29.89R
SEYMOUR +      CLEAR     59  46  63 W7        29.87

$$





U.S. Dept. of Commerce
NOAA National Weather Service
1325 East West Highway
Silver Spring, MD 20910
E-mail: w-nws.webmaster@noaa.gov
Page last modified: May 16, 2007
NATIONAL WEATHER SERVICE: for Safety, for Work, for Fun - FOR LIFE